TimeMDT,TemperatureF,Dew PointF,Humidity,Sea Level PressureIn,VisibilityMPH,Wind Direction,Wind SpeedMPH,Gust SpeedMPH,PrecipitationIn,Events,Conditions,WindDirDegrees,DateUTC
12:15 AM,35.6,17.6,48,30.12,10.0,NNW,11.5,-,N/A,,Mostly Cloudy,340,2013-04-10 06:15:00
12:35 AM,33.8,17.6,52,30.12,10.0,NNW,12.7,-,N/A,,Scattered Clouds,340,2013-04-10 06:35:00
12:55 AM,33.8,17.6,52,30.13,10.0,NW,16.1,-,N/A,,Mostly Cloudy,320,2013-04-10 06:55:00
1:15 AM,33.8,17.6,52,30.13,10.0,NNW,12.7,17.3,N/A,,Overcast,330,2013-04-10 07:15:00
1:35 AM,35.6,15.8,44,30.13,10.0,NNW,11.5,-,N/A,,Mostly Cloudy,330,2013-04-10 07:35:00
1:55 AM,33.8,19.4,56,30.13,10.0,NE,6.9,-,N/A,,Mostly Cloudy,40,2013-04-10 07:55:00
2:15 AM,32.0,19.4,60,30.14,10.0,ENE,3.5,-,N/A,,Scattered Clouds,70,2013-04-10 08:15:00
2:35 AM,32.0,21.2,64,30.14,10.0,SE,6.9,-,N/A,,Partly Cloudy,140,2013-04-10 08:35:00
2:55 AM,32.0,21.2,64,30.14,10.0,ESE,6.9,-,N/A,,Clear,110,2013-04-10 08:55:00
3:15 AM,30.2,21.2,69,30.13,10.0,East,4.6,-,N/A,,Clear,90,2013-04-10 09:15:00
3:35 AM,30.2,21.2,69,30.14,10.0,East,3.5,-,N/A,,Clear,80,2013-04-10 09:35:00
3:55 AM,28.4,19.4,69,30.13,10.0,East,4.6,-,N/A,,Clear,90,2013-04-10 09:55:00
4:15 AM,28.4,19.4,69,30.14,10.0,ENE,4.6,-,N/A,,Clear,70,2013-04-10 10:15:00
4:35 AM,28.4,19.4,69,30.14,10.0,East,5.8,-,N/A,,Clear,80,2013-04-10 10:35:00
4:55 AM,26.6,21.2,80,30.14,10.0,East,6.9,-,N/A,,Clear,90,2013-04-10 10:55:00
5:15 AM,28.4,19.4,69,30.15,10.0,East,5.8,-,N/A,,Clear,80,2013-04-10 11:15:00
5:35 AM,28.4,19.4,69,30.15,10.0,East,4.6,-,N/A,,Clear,100,2013-04-10 11:35:00
5:55 AM,28.4,19.4,69,30.16,10.0,ESE,3.5,-,N/A,,Clear,110,2013-04-10 11:55:00
6:15 AM,28.4,19.4,69,30.15,10.0,East,5.8,-,N/A,,Clear,100,2013-04-10 12:15:00
6:35 AM,28.4,19.4,69,30.16,10.0,East,3.5,-,N/A,,Clear,90,2013-04-10 12:35:00
6:50 AM,26.6,19.4,74,30.16,15.0,Variable,4.6,-,N/A,,Partly Cloudy,0,2013-04-10 12:50:00
6:55 AM,26.6,17.6,69,30.16,10.0,East,5.8,-,N/A,,Clear,100,2013-04-10 12:55:00
8:50 AM,33.8,21.2,60,30.21,15.0,Variable,4.6,-,N/A,,Partly Cloudy,0,2013-04-10 14:50:00
10:50 AM,37.4,23.0,56,30.21,15.0,Variable,5.8,-,N/A,,Partly Cloudy,0,2013-04-10 16:50:00
1:50 PM,44.6,26.6,49,30.15,15.0,Variable,5.8,-,N/A,,Partly Cloudy,0,2013-04-10 19:50:00
2:48 PM,44.6,24.8,46,30.13,15.0,Variable,4.6,-,N/A,,Scattered Clouds,0,2013-04-10 20:48:00
3:48 PM,46.4,26.6,46,30.11,15.0,Variable,5.8,-,N/A,,Scattered Clouds,0,2013-04-10 21:48:00
4:59 PM,48.2,24.8,40,30.08,15.0,Variable,5.8,-,N/A,,Scattered Clouds,0,2013-04-10 22:59:00
6:48 PM,48.2,26.6,43,30.04,15.0,West,10.4,-,N/A,,Mostly Cloudy,270,2013-04-11 00:48:00
7:54 PM,48.2,28.4,46,30.04,15.0,SSW,4.6,-,N/A,,Mostly Cloudy,210,2013-04-11 01:54:00
8:49 PM,46.4,26.6,46,30.04,15.0,Calm,Calm,-,N/A,,Mostly Cloudy,0,2013-04-11 02:49:00
8:55 PM,46.4,28.4,50,30.05,10.0,SSE,5.8,-,N/A,,Clear,150,2013-04-11 02:55:00
9:15 PM,46.4,28.4,50,30.05,10.0,ESE,3.5,-,N/A,,Clear,120,2013-04-11 03:15:00
9:35 PM,44.6,28.4,53,30.05,10.0,Calm,Calm,-,N/A,,Clear,0,2013-04-11 03:35:00
9:55 PM,42.8,28.4,57,30.05,10.0,SE,3.5,-,N/A,,Clear,140,2013-04-11 03:55:00
10:15 PM,41.0,28.4,61,30.05,10.0,SSE,4.6,-,N/A,,Clear,150,2013-04-11 04:15:00
10:35 PM,41.0,32.0,70,30.05,10.0,South,6.9,-,N/A,,Scattered Clouds,180,2013-04-11 04:35:00
10:55 PM,41.0,32.0,70,30.04,10.0,Calm,Calm,-,N/A,,Overcast,0,2013-04-11 04:55:00
11:15 PM,42.8,32.0,66,30.04,10.0,Calm,Calm,-,N/A,,Overcast,0,2013-04-11 05:15:00
11:35 PM,42.8,32.0,66,30.02,10.0,SSE,4.6,-,N/A,,Overcast,150,2013-04-11 05:35:00
11:55 PM,42.8,33.8,70,30.01,10.0,SSE,5.8,-,N/A,,Overcast,160,2013-04-11 05:55:00